Weather History for Fairbanks Ft. Wainwright, AK

Change the Weather History Date:

Monday, July 29, 2013

  Actual Average Record
Temperature  
Mean Temperature 72 °F -  
Max Temperature 80 °F 67 °F 80 °F (2013)
Min Temperature 64 °F 50 °F 42 °F (1999)
Cooling Degree Days 7    
Growing Degree Days 22 (Base 50)    
Moisture  
Dew Point 52 °F    
Average Humidity 49    
Maximum Humidity 68    
Minimum Humidity 30    
Precipitation  
Precipitation 0.00 in - - ()
Sea Level Pressure  
Sea Level Pressure 30.10 in    
Wind  
Wind Speed 9 mph (West)    
Max Wind Speed 16 mph    
Max Gust Speed 25 mph    
Visibility 10 miles    
Events      
Averages and records for this station are not official NWS values.
T = Trace of Precipitation, MM = Missing Value Source: NWS Daily Summary

Daily Weather History Graph

Daily Weather History Graph

Search for Another Location

Airport:

Trip Planner

Search our weather history database for the weather conditions in past years. The results will help you decide how hot, cold, wet, or windy it might be!

Date:

Astronomy

Jul. 29, 2013 Rise Set
Actual Time 4:41 AM AKDT 11:09 PM AKDT
Civil Twilight 2:45 AM AKDT 12:59 AM AKDT
Nautical Twilight Sun does not rise Sun does not rise
Astronomical Twilight Sun does not rise Sun does not rise
Moon 11:35 PM AKDT (7/29) 4:08 PM AKDT (7/29)
Length of Visible Light 22h 13m
Length of Day
18h 28m
Waning Gibbous, 49% of the Moon is Illuminated
Jul 29
Waning Gibbous
Aug 6
New
Aug 14
First Quarter
Aug 20
Full
Aug 28
Last Quarter

Hourly Weather History & Observations

Time (AKDT) Temp. Dew Point Humidity Pressure Visibility Wind Dir Wind Speed Gust Speed Precip Events Conditions
12:56 AM 73.9 °F 53.1 °F 48% 30.06 in 10.0 mi West 4.6 mph - N/A   Mostly Cloudy
1:56 AM 72.0 °F 54.0 °F 53% 30.08 in 10.0 mi SW 12.7 mph - N/A   Overcast
2:56 AM 70.0 °F 55.0 °F 59% 30.09 in 10.0 mi WSW 9.2 mph - 0.00 in   Mostly Cloudy
3:56 AM 69.1 °F 54.0 °F 58% 30.10 in 10.0 mi SW 8.1 mph - 0.00 in   Partly Cloudy
4:56 AM 68.0 °F 54.0 °F 61% 30.10 in 10.0 mi WSW 4.6 mph - N/A   Clear
5:56 AM 64.9 °F 54.0 °F 68% 30.11 in 10.0 mi WSW 8.1 mph - N/A   Partly Cloudy
6:26 AM 64.4 °F 53.6 °F 68% 30.11 in 10.0 mi West 4.6 mph - N/A   Mostly Cloudy
6:55 AM 66.2 °F 53.6 °F 64% 30.12 in 10.0 mi SW 5.8 mph - N/A   Mostly Cloudy
7:57 AM 66.2 °F 53.6 °F 64% 30.12 in 25.0 mi West 6.9 mph - N/A   Mostly Cloudy
8:55 AM 68.0 °F 53.6 °F 60% 30.13 in 25.0 mi West 5.8 mph - N/A   Mostly Cloudy
9:55 AM 71.6 °F 53.6 °F 53% 30.13 in 25.0 mi SW 6.9 mph - N/A   Mostly Cloudy
10:55 AM 73.4 °F 53.6 °F 50% 30.13 in 25.0 mi WSW 10.4 mph - N/A   Mostly Cloudy
11:58 AM 75.2 °F 51.8 °F 44% 30.13 in 25.0 mi WSW 13.8 mph 21.9 mph N/A   Scattered Clouds
12:58 PM 77.0 °F 53.6 °F 44% 30.12 in 25.0 mi SW 13.8 mph - N/A   Partly Cloudy
1:55 PM 78.8 °F 51.8 °F 39% 30.12 in 25.0 mi West 13.8 mph 23.0 mph N/A   Partly Cloudy
2:55 PM 80.6 °F 51.8 °F 37% 30.11 in 25.0 mi SW 13.8 mph - N/A   Partly Cloudy
3:55 PM 78.8 °F 48.2 °F 34% 30.10 in 25.0 mi WNW 12.7 mph 25.3 mph N/A   Scattered Clouds
4:55 PM 80.6 °F 46.4 °F 30% 30.09 in 25.0 mi West 16.1 mph 23.0 mph N/A   Scattered Clouds
5:55 PM 80.6 °F 46.4 °F 30% 30.09 in 25.0 mi WNW 16.1 mph - N/A   Partly Cloudy
6:55 PM 78.8 °F 48.2 °F 34% 30.09 in 25.0 mi NW 11.5 mph - N/A   Partly Cloudy
7:55 PM 78.8 °F 48.2 °F 34% 30.08 in 25.0 mi WNW 11.5 mph - N/A   Partly Cloudy
8:55 PM 75.2 °F 48.2 °F 38% 30.09 in 25.0 mi West 13.8 mph - N/A   Partly Cloudy
9:55 PM 73.4 °F 50.0 °F 44% 30.10 in 25.0 mi WNW 5.8 mph - N/A   Partly Cloudy
10:56 PM 70.0 °F 50.0 °F 49% 30.10 in 10.0 mi West 6.9 mph - N/A   Clear
11:56 PM 64.0 °F 51.1 °F 63% 30.11 in 10.0 mi Calm Calm - N/A   Clear